MMS 4

Last updated on July 5, 2021, 2:16 p.m. UTC

1 40485U 15011D   21185.40960939 -.00001304  00000-0  00000+0 0  9994
2 40485  33.5839 116.5119 8434773  34.0654 110.4120  0.28559962 12284
UTC
Height (km)
Latitude
Longitude
Inclination
Orbital Period
UTC large
Height (km)
Speed (km/s)
/
Latitude / Longitude
Inclination (degrees)
Orbital Period (minutes)
Azimuth
Elevation
Range (km)
Doppler Factor
iOS Compass Heading
iOS Angle